Regional Weather Roundup
Issued by NWS Northern Indiana

Home | Current Version | Previous Version | Graphics & Text | Print | Product List | Glossary On
Versions: 1 2 3 4 5 6 7 8 9 10 11 12 13 14 15 16 17 18 19 20 21 22 23 24 25 26 27 28 29 30 31 32 33 34 35 36 37 38 39 40 41 42 43 44 45 46 47 48 49 50
000
ASUS43 KIWX 170300
RWRIWX

KIWX WEATHER ROUNDUP
NATIONAL WEATHER SERVICE NORTHERN INDIANA
1000 PM EST SAT DEC 16 2017

NOTE: "FAIR" INDICATES FEW OR NO CLOUDS BELOW 12,000 FEET WITH NO
SIGNIFICANT WEATHER AND/OR OBSTRUCTIONS TO VISIBILITY.

* THESE STATIONS ARE NOT UNDER NWS QUALITY CONTROL. THEY ALSO MAY NOT
  REPORT WEATHER SUCH AS PRECIPITATION OR FOG.

INZ001>027-170400-
NORTHERN INDIANA

CITY           SKY/WX    TMP DP  RH WIND       PRES   REMARKS
GARY*          CLEAR     30  28  93 CALM      30.05R
KNOX*          CLOUDY    30  27  86 CALM      30.05R
SOUTH BEND     CLOUDY    32  27  81 E5        30.07R WCI  27
GOSHEN         CLOUDY    29  25  85 SE5       30.07R WCI  24
MONTICELLO*    CLOUDY    35  27  72 S3        30.05S
WARSAW*        CLEAR     32  28  86 SE3       30.07R
FORT WAYNE     CLEAR     30  26  85 E3        30.10R
PERU/GRISSOM   CLOUDY    34  28  77 S7        30.07R WCI  28

$$
INZ028>050-170400-
CENTRAL INDIANA

CITY           SKY/WX    TMP DP  RH WIND       PRES   REMARKS
LAFAYETTE      CLOUDY    34  28  79 CALM      30.07R
KOKOMO*        CLOUDY    34  26  72 S7        30.09R WCI  28
MUNCIE*        CLOUDY    39  27  62 S5        30.09R
INDIANAPOLIS   CLOUDY    39  28  64 SW8       30.10R

$$
MIZ043>046-050>051-056>058-064>065-071>073-077>080-170400-
SOUTHWEST LOWER MICHIGAN

CITY           SKY/WX    TMP DP  RH WIND       PRES   REMARKS
BATTLE CREEK   CLOUDY    27  22  81 NE8       30.09R WCI  19
BENTON HARBOR  CLOUDY    32  24  72 E6        30.07R WCI  26
COLDWATER*     CLEAR     27  25  95 E6        30.08S WCI  20
HILLSDALE*     CLOUDY    27  23  86 E8        30.08S FOG     WCI  18
HOLLAND        CLEAR     23  18  81 E8        30.11S WCI  14
GRAND RAPIDS   CLOUDY    22  18  85 E10       30.12R WCI  11
KALAMAZOO      CLOUDY    28  24  85 NE3       30.09R
STURGIS*       PTCLDY    33  27  78 SE6       30.07R WCI  28
THREE RIVERS*  FAIR      28  24  86 NE3       30.08R

$$
OHZ001>008-015>018-024>025-170400-
NORTHWEST OHIO

CITY           SKY/WX    TMP DP  RH WIND       PRES   REMARKS
DEFIANCE       CLEAR     29  25  85 E7        30.12R WCI  22
FINDLAY        CLEAR     33  26  75 NE6       30.09S WCI  28
TOLEDO EXPRESS CLOUDY    28  27  96 E6        30.12R WCI  22
TOLEDO METCALF MOCLDY    29  26  89 NE8       30.14R WCI  21
LIMA           CLEAR     36  28  73 S8        30.10R

$$
AND FOR LAKE MICHIGAN COASTAL AND OPEN LAKE BUOY OBSERVATIONS

STATION/POSITION TEMP    WIND        PRES    VSBY  WAVE
                 AIR SEA DIR/SP/G                  HT/PER
                 (F)     (DEG/KT/KT) (MB)    (MI)  (FT/S)
CALUMET HARBOR    37      40/  2/  2 1016.5R
MICHIGAN CITY     37     120/ 10/ 10   N/A
BURNS HARBOR      38      CALM  /  1 1017.9R
SAINT JOSEPH      35     100/  3/  5 1017.9

$$
&&




USA.gov is the U.S. government's official web portal to all federal, state and local government web resources and services.